Weather History for Osoyoos, BC

Change the Weather History Date:

Monday, September 10, 2012

  Actual Average Record
Temperature  
Mean Temperature 62 °F -  
Max Temperature 70 °F - - ()
Min Temperature 55 °F - - ()
Degree Days  
Heating Degree Days 2    
Growing Degree Days 12 (Base 50)    
Moisture  
Dew Point 35 °F    
Average Humidity 36    
Maximum Humidity 71    
Minimum Humidity 15    
Precipitation  
Precipitation 0.00 in - - ()
Sea Level Pressure  
Sea Level Pressure 29.89 in    
Wind  
Wind Speed 6 mph ()    
Max Wind Speed 17 mph    
Max Gust Speed 30 mph    
T = Trace of Precipitation, MM = Missing Value Source: Averaged Metar Reports

Daily Weather History Graph

Daily Weather History Graph

Search for Another Location

Airport:

Trip Planner

Search our weather history database for the weather conditions in past years. The results will help you decide how hot, cold, wet, or windy it might be!

Date:

Astronomy

Sep. 10, 2012 Rise Set
Actual Time 6:27 AM PDT 7:20 PM PDT
Civil Twilight 5:55 AM PDT 7:52 PM PDT
Nautical Twilight 5:17 AM PDT 8:30 PM PDT
Astronomical Twilight 4:36 AM PDT 9:11 PM PDT
Moon 12:31 AM PDT (9/10) 4:13 PM PDT (9/10)
Length of Visible Light 13h 56m
Length of Day
12h 52m
Waning Crescent, 29% of the Moon is Illuminated
Sep 10
Waning Crescent
Sep 15
New
Sep 22
First Quarter
Sep 29
Full
Oct 8
Last Quarter

Hourly Weather History & Observations

Time (PDT) Temp. Dew Point Humidity Pressure Visibility Wind Dir Wind Speed Gust Speed Precip Events Conditions
12:00 AM 68.4 °F 42.6 °F 39% 29.75 in - NW 2.3 mph - N/A   Unknown
1:00 AM 66.2 °F 43.3 °F 44% 29.76 in - SE 2.3 mph - N/A   Unknown
2:00 AM 59.9 °F 48.2 °F 65% 29.75 in - ESE 1.2 mph - N/A   Unknown
3:00 AM 56.3 °F 46.9 °F 71% 29.75 in - ESE 2.3 mph - N/A   Unknown
4:00 AM 57.9 °F 43.9 °F 60% 29.74 in - SSE 5.8 mph - N/A   Unknown
5:00 AM 60 °F 44 °F 43% 29.74 in - SSE 4.6 mph - -  
5:00 AM 60.4 °F 43.5 °F 54% 29.74 in - SSE 4.6 mph - N/A   Unknown
6:00 AM 62.2 °F 42.1 °F 48% 29.74 in - SE 5.8 mph - N/A   Unknown
7:00 AM 61.5 °F 43.5 °F 52% 29.76 in - SSE 4.6 mph - N/A   Unknown
8:00 AM 61.3 °F 47.3 °F 60% 29.81 in - North 3.5 mph - N/A   Unknown
9:00 AM 64.2 °F 35.2 °F 34% 29.86 in - North 17.3 mph 29.9 mph N/A   Unknown
10:00 AM 63.7 °F 29.8 °F 28% 29.90 in - North 17.3 mph 27.6 mph N/A   Unknown
11:00 AM 64 °F 29 °F 16% 29.92 in - North 11.5 mph - -  
11:00 AM 64.4 °F 29.5 °F 27% 29.92 in - North 11.5 mph 21.9 mph N/A   Unknown
12:00 PM 66.6 °F 26.8 °F 22% 29.93 in - North 11.5 mph 20.7 mph N/A   Unknown
1:00 PM 66.9 °F 28.4 °F 24% 29.93 in - North 11.5 mph 19.6 mph N/A   Unknown
2:00 PM 66.6 °F 27.9 °F 23% 29.93 in - North 8.1 mph - N/A   Unknown
3:00 PM 67.5 °F 28.6 °F 23% 29.94 in - NNW 6.9 mph - N/A   Unknown
4:00 PM 66.0 °F 25.9 °F 22% 29.93 in - North 8.1 mph - N/A   Unknown
5:00 PM 65 °F 29 °F 15% 29.94 in - North 9.2 mph - -  
5:00 PM 65.3 °F 28.9 °F 26% 29.94 in - North 9.2 mph - N/A   Unknown
6:00 PM 66.0 °F 30.6 °F 27% 29.95 in - North 13.8 mph 24.2 mph N/A   Unknown
7:00 PM 63.1 °F 29.1 °F 28% 29.98 in - North 10.4 mph 20.7 mph N/A   Unknown
8:00 PM 61.5 °F 28.9 °F 29% 30.01 in - North 10.4 mph 18.4 mph N/A   Unknown
9:00 PM 59.9 °F 30.7 °F 33% 30.04 in - North 8.1 mph - N/A   Unknown
10:00 PM 60.6 °F 32.9 °F 35% 30.06 in - NNW 11.5 mph 18.4 mph N/A   Unknown
11:00 PM 60 °F 30 °F 21% 30.07 in - NW 9.2 mph - -  
11:00 PM 60.1 °F 30.4 °F 33% 30.07 in - NW 9.2 mph 23.0 mph N/A   Unknown